STARLINK-31900, 59942

Orbit data source: Space-Track

STARLINK-31900, 59942 is a payload satellite owned by SpaceX/Seattle (US) in LEO that was launched on Sat, 01 Jun 2024 UTC via an FALCON 9 launch vehicle from the Air Force Eastern Test Range (AFETR). Payload-class satellites include a variety of spacecraft equipped with specific instruments for various scientific and technological missions. These include communications satellites like Starlink; space stations such as the ISS; scientific satellites like the Hubble; Earth observation satellites from companies like Planet Labs, Umbra, and HawkEye 360; GPS; miniature CubeSats for education and research; and military/defense satellites.

Loading next visibility...
Identifier
59942, 2024-106W
Orbit
LEO
Country
Flag of USUS
Related business
Manufacturer
SpaceX/Seattle
Mission
Operational spacecraft
Bus & Motor
STARLINK V2M, Unknown motor
Mass
730 kg wet, ~700 kg dry
Launch date (UTC)
2024-06-01 (1 year ago)
Launch vehicle
FALCON 9
Launch site
Air Force Eastern Test Range (AFETR)
Object type
Payload
Rocket body
Debris
Shape & HBR
Unknown
Radar Cross Section
Large (>1 m²)

Expand to show TLE details & history
Last TLE update: 3 days ago

TLE from 3 days ago
0 STARLINK-31900
1 59942U 24106W   25259.28499290  .00003406  00000-0  13317-3 0  9999
2 59942  43.0006 237.1433 0001568 268.4768  91.5904 15.27600478 73859
Epoch: 2025-09-16T06:50Z
TLE epoch observation values (Epoch: 2025-09-16T06:50:23.386Z)
Latitude
-0.00002°
Longitude
139.06834°
Altitude
482.793 km
Speed
7.626 km/s
True Right ascension
15h 48m 34s
True Declination
0° 00' 00"
Sunlit
Object was in daylight at epoch
Visualization orbit readout
Latitude
Unknown
Longitude
Unknown
Altitude
Unknown
Speed
Unknown
Apparent Right ascension
Unknown
Apparent Declination
Unknown
Sunlit
N/A
Visualization observer readout
Local Sidereal Time
20:26:30
Azimuth
Unknown
Elevation
Unknown
Doppler factor
Unknown
Orbital elements
Apogee altitude
486.009 km
Perigee altitude
483.857 km
Semi-major axis
6,863.07 km
Eccentricity
0.00016
Inclination
43.0006°
RAAN
237.1433°
Arg. of periapsis
268.4768°
True anomaly
91.60836°
Mean anomaly
91.5904°
Eccentric anomaly
91.59938°
Mean motion
3.81738 °/min
Orbital period
94.31 mins
BSTAR
0.00013317
Loading maneuver chart data...
Computing Atmospheric mass density...
Loading historical data...
Loading historical data...
Loading historical data...
Loading historical data...
Loading historical data...
Loading historical data...
Loading historical data...

Documentation

Showing up to 5 results
|